Tracking 28790 objects as of 18-Apr-2024
HD Live streaming from Space Station
objects crossing your sky now

COSMOS 2251 DEB

Track COSMOS 2251 DEB now!
10-day predictions


NORAD ID: 35646
Int'l Code: 1993-036ANM
Perigee: 770.6 km
Apogee: 1,471.3 km
Inclination: 73.9 °
Period: 107.6 minutes
Semi major axis: 7491 km
RCS: 0.0142 m2 (small)
Launch date: June 16, 1993
Source: Commonwealth of Independent States (former USSR) (CIS)
Launch site: PLESETSK MISSILE AND SPACE COMPLEX (PKMTR)

Note: This is SATELLITE DEBRIS
Your satellite tracking list
Your tracking list is empty




NASA's NSSDC Master Catalog

Two Line Element Set (TLE):
1 35646U 93036ANM 24107.96864420  .00003005  00000-0  29938-2 0  9999
2 35646  73.8686 294.3796 0467667 146.9548   4.2682 13.38789935737574
Source of the keplerian elements: AFSPC